User: anonymous   Login
Location: Hoyos del Collado
(40.3594°N, 5.2003°W)
Time: 03:54:58
(UTC+00:00)
Language:

CARTOSAT-1 - Orbit

View from above orbital plane
View from above orbital plane
View from above satellite
View from above satellite

Ground track
Ground track

The orbit data is extracted from the following two-line orbital elements,

1 28649U 05017A   24167.86674566  .00002641  00000-0  30055-3 0  9999
2 28649  97.6136 211.3544 0001322  47.3117 312.8211 14.87015588 34961
Epoch (UTC): 15 June 2024 20:48:06
Eccentricity: 0.0001322
inclination: 97.6136°
perigee height: 606 km
apogee height: 608 km
right ascension of ascending node: 211.3544°
argument of perigee: 47.3117°
revolutions per day: 14.87015588
mean anomaly at epoch: 312.8211°
orbit number at epoch: 3496

The dashed part of the orbit path shows where the satellite is in the earth's shadow,  

DLR